Location: Gampalag?dem West
(17.0001°N, 80.5194°E)
Time: 06:24:01
(UTC+00:00)

Daily predictions for brighter satellites

Satellite Brightness Start Highest point End
(mag) Time Altitude Azimuth Time Altitude Azimuth Time Altitude Azimuth
GPS 2-12 Rocket1 2.9 13:28:50 10° WSW 13:33:13 80° SSE 13:37:40 10° E
Lacrosse 4 Rocket 3.8 13:31:22 10° NW 13:34:47 24° WSW 13:38:14 10° SSW
SL-08 R/B 4.3 13:30:49 10° N 13:35:22 52° WNW 13:39:51 10° SSW
SL-8 R/B 3.7 13:37:05 10° NW 13:41:49 82° SW 13:46:33 10° SE
Cosmos 407 Rocket 4.0 13:37:22 10° SSW 13:42:35 68° WNW 13:47:45 10° N
Ariane 3 Deb 4.1 13:40:02 10° SW 13:43:00 18° S 13:45:17 10° SE
Cosmos 1674 4.3 13:41:10 10° ESE 13:43:01 14° E 13:44:52 10° ENE
Cosmos 2251 Rocket 3.7 13:38:14 10° SSW 13:43:28 78° WNW 13:48:45 10° N
Delta 128 4.3 13:38:22 10° SW 13:43:32 54° SSE 13:49:38 10° ENE
ATLAS CENTAUR R/B 4.5 13:30:24 10° NNW 13:43:57 69° NE 13:53:02 10° SE
Cosmos 1733 2.9 13:42:03 10° N 13:45:33 83° E 13:49:03 10° S
Cosmos 1805 3.8 13:46:54 10° NNE 13:50:17 35° E 13:53:40 10° SSE
ARIANE 5 DEB (SYLDA) 4.3 13:43:01 10° WSW 13:52:06 27° SSW 13:55:17 11° SE
Resurs 01 Rocket 3.4 13:53:21 11° ESE 13:55:25 15° ENE 13:57:52 10° NE
Cosmos 44 Rocket 3.5 13:51:03 10° NNW 13:55:43 66° WSW 14:00:17 10° SSE
Cosmos 2360 4.2 13:50:27 10° N 13:56:08 68° ENE 14:01:48 10° SSE
Meteor 2-9 Rocket 4.5 13:50:58 10° N 13:56:39 74° W 14:02:09 10° S
Delta 202 4.2 13:52:00 10° W 13:57:50 47° SSW 14:02:03 15° SE
Cosmos 1954 Rocket 4.1 13:54:59 10° S 14:00:10 57° ESE 14:05:20 10° NNE
USA 234 3.2 13:53:42 10° NE 14:00:11 69° SE 14:06:40 10° SSW
Cosmos 1975 3.4 13:56:53 10° NNE 14:00:23 33° E 14:03:06 15° SE
Cosmos 1340 4.0 13:57:34 10° NNW 14:00:39 35° W 14:03:44 10° SSW
Meteor 1-18 Rocket 4.4 13:55:01 10° S 14:00:56 83° W 14:06:47 10° N
Cosmos 1328 Rocket 3.4 13:56:51 10° S 14:01:08 84° E 14:05:24 10° N
GPS 2-15 Rocket1 3.7 13:57:47 10° SW 14:02:16 39° SSE 14:05:52 15° E
ADEOS 3.6 13:57:27 10° SSE 14:02:39 88° ENE 14:07:52 10° NNW
SWIFT 4.0 14:01:38 10° S 14:03:47 14° SSE 14:04:17 14° SSE
Centaur AC-119 3.7 14:02:08 10° W 14:05:07 46° N 14:13:10 10° ENE
CZ-4B R/B 4.1 14:02:15 15° SE 14:05:44 29° ENE 14:10:12 10° NNE
Meteor PRIRODA 3.9 14:04:02 10° S 14:07:20 60° W 14:10:38 10° NNW
CZ-4B R/B 2.9 14:04:53 10° SSE 14:08:55 70° ENE 14:13:07 10° N
Cosmos 1743 Rocket 4.3 14:06:07 10° NNW 14:10:27 56° W 14:14:47 10° S
Cosmos 676 Rocket 4.0 14:07:04 10° S 14:12:18 61° ESE 14:17:31 10° NNE
Atlas 2A Centaur Rocket 3.7 14:08:20 10° W 14:13:01 27° NNW 14:15:14 10° NE
Cosmos 1066 Rocket 4.3 14:10:03 10° S 14:15:54 89° E 14:21:44 10° N
ATLAS CENTAUR R/B 0.9 14:18:17 10° S 14:21:38 51° ESE 14:25:00 10° NE
Cosmos 1626 4.4 14:19:58 10° SW 14:22:27 21° W 14:24:55 10° NNW
Resurs 1-3 4.0 14:22:01 10° S 14:26:18 63° W 14:30:35 10° NNW
USA 186 2.0 14:25:51 39° SE 14:26:41 51° ENE 14:29:54 10° N
USA 59 Rocket 3.6 14:23:20 10° W 14:27:17 17° WSW 14:31:59 10° SSW
Cosmos 1092 Rocket 4.3 14:21:12 10° S 14:27:28 71° W 14:33:46 10° N
PAYLOAD B 4.2 14:23:25 14° SSE 14:28:12 79° ENE 14:33:44 10° N
Meteor 2-12 Rocket 4.4 14:26:59 10° S 14:33:02 64° E 14:39:07 10° NNE
Cosmos 1515 Rocket 3.4 14:30:44 10° S 14:34:59 90° NE 14:39:18 10° N
CARTOSAT-1 3.7 14:37:49 41° ESE 14:38:47 51° ENE 14:42:55 10° N
NATO 3D Rocket 3.4 14:34:23 10° W 14:39:03 76° N 14:42:19 23° ENE
BlueWalker 3 1.9 14:35:54 10° SSW 14:39:11 52° SSE 14:39:11 52° SSE
KORONAS-FOTON 3.6 14:37:42 28° S 14:39:35 89° WNW 14:43:17 10° N
SJ-6B 4.1 14:38:07 12° SSW 14:41:08 33° W 14:44:24 10° NNW
Okean-O 4.3 14:42:42 19° ENE 14:42:42 19° ENE 14:45:05 10° NNE
Cosmos 1763 Rocket 4.4 14:40:23 10° NNE 14:44:47 28° ENE 14:44:55 28° ENE
Feng Yun 1-1 Rocket 4.3 14:42:14 29° SSE 14:45:23 72° ENE 14:51:10 10° N
Cosmos 1842 3.5 14:44:33 22° SSW 14:46:45 59° W 14:50:20 10° N
SPOT 1/Viking Rocket 4.2 14:42:21 13° S 14:46:49 53° W 14:51:47 10° NNW
FUSE 4.1 14:41:49 10° SW 14:46:55 48° SSE 14:47:39 45° SE
Cosmos 2369 4.3 14:43:18 10° N 14:48:35 38° ENE 14:49:27 36° E
Cosmos 1633 Rocket 3.1 14:45:24 10° N 14:49:44 77° W 14:51:21 38° S
Lacrosse 5 rocket 2.8 14:47:20 10° WNW 14:50:53 29° WSW 14:52:14 23° SSW
Atlas Centaur 2 4.4 14:46:20 10° NW 14:53:09 31° N 15:00:21 10° ENE
CSL-04 Rocket 3.5 14:52:41 42° SSE 14:54:28 77° ENE 14:59:45 10° N
Okean O Rocket 1.4 14:59:18 72° ESE 14:59:35 76° ENE 15:03:57 10° N
IRIDIUM 104 4.2 14:55:11 10° N 15:00:23 76° E 15:01:31 55° SSE
CZ-4 R/B 3.4 15:00:12 14° SW 15:02:39 24° W 15:05:52 10° NW
Cosmos 1697 Rocket 3.9 14:58:33 10° NW 15:03:39 37° WSW 15:07:08 18° SSW
Cosmos 1470 Rocket 3.4 15:01:27 10° N 15:05:45 86° W 15:05:46 86° WSW
MOS 1-B 4.3 15:03:56 40° S 15:06:09 80° WSW 15:11:55 10° NNW
Cosmos 1707 3.8 15:06:06 33° WSW 15:06:54 38° W 15:10:16 10° NNW
CSL-04 Debris 4.3 15:05:51 38° S 15:07:55 69° WSW 15:13:17 10° NNW
IRIDIUM 114 4.2 15:04:19 10° N 15:09:31 84° W 15:10:39 56° S
DELTA 2 R/B (1) 3.6 15:06:14 10° WNW 15:11:46 65° SW 15:12:22 60° S
GPS 2-12 Rocket1 3.4 15:12:02 10° W 15:16:11 60° NNW 15:16:11 60° NNW
Cosmos 1932 4.3 15:13:15 30° SSW 15:16:37 76° ESE 15:22:57 10° NNE
Cosmos 1850 Rocket 4.1 15:21:20 59° SW 15:22:15 74° WNW 15:27:28 10° N
Cosmos 1980 Rocket 2.4 15:16:48 10° NNW 15:22:23 65° WSW 15:23:12 58° SSW
GOES 2 Rocket 3.8 15:19:28 10° WSW 15:26:41 80° NNW 15:27:30 66° NE
Cosmos 540 Rocket 4.1 15:25:38 10° N 15:29:23 47° NNE 15:29:23 47° NNE
SL-08 ROCKET BODY 4.3 15:30:49 82° S 15:31:09 90° ENE 15:37:16 10° N
Resurs 01 Rocket 3.3 15:30:50 25° WSW 15:31:31 26° W 15:35:13 10° NW
Cosmos 968 Rocket 4.3 15:34:13 41° NNE 15:34:13 41° NNE 15:37:32 10° NNE
SPOT 5 4.4 15:35:21 25° N 15:35:21 25° N 15:37:14 10° N
Terra 4.1 16:06:18 18° N 16:06:18 18° N 16:07:34 10° N
Cosmos 2360 Rocket 4.4 16:09:33 10° NNE 16:10:46 15° NNE 16:10:46 15° NNE
SL-16 R/B 3.9 16:21:34 10° NNW 16:24:07 28° NNW 16:24:07 28° NNW
Cosmos 2333 Rocket 4.5 16:27:46 10° N 16:29:12 17° NNE 16:29:12 17° NNE
FALCON 9 R/B 4.5 16:36:25 10° W 16:40:41 35° WSW 16:40:41 35° WSW
Atlas Centaur 2 3.8 16:35:46 10° NW 16:42:47 46° N 16:42:47 46° N
ADEOS II 4.4 20:32:05 10° NNE 20:33:29 19° NNE 20:33:29 19° NNE
Resurs 1-4 Rocket 4.5 20:49:37 10° N 20:50:37 15° N 20:50:37 15° N
SL-16 R/B 3.4 21:14:56 39° ESE 21:16:24 45° ENE 21:22:17 10° N
Gbstr 26 Del rocket 4.3 21:22:25 54° ENE 21:22:25 54° ENE 21:27:30 10° NE
Lacrosse 5 3.5 21:25:21 27° E 21:25:21 27° E 21:28:35 10° ENE
Cosmos 2123 Rocket 4.3 21:20:18 10° N 21:26:24 60° E 21:26:44 59° E
CZ-2C R/B 3.6 21:30:39 10° NE 21:34:25 35° E 21:34:25 35° E
Envisat 3.4 21:37:45 10° NNE 21:41:53 60° NNE 21:41:53 60° NNE
Cosmos 2278 Rocket 3.4 21:42:31 32° SE 21:43:50 36° ESE 21:48:57 10° NE
Cosmos 1048 Rocket 4.3 21:40:09 10° N 21:45:23 64° ENE 21:45:47 62° E
FUSE 4.0 21:53:16 76° NNE 21:53:19 76° NNE 21:58:41 10° ESE
ALOS 4.4 21:53:01 10° NNW 21:54:14 16° NNW 21:54:14 16° NNW
Cosmos 1603 4.2 21:55:59 10° NNW 22:00:06 44° NW 22:00:06 44° NW
Iridium 4 Rocket 3.4 22:01:32 10° N 22:06:08 69° WNW 22:06:08 69° WNW
PAYLOAD A 4.0 22:09:10 10° N 22:14:31 83° WNW 22:15:58 51° SSW
Okean 1-7 Rocket 3.4 22:16:58 74° WSW 22:17:08 75° W 22:21:37 10° N
Cosmos-2242 4.0 22:13:22 10° NNE 22:17:27 44° E 22:20:51 14° SSE
Cosmos 2100 Rocket 4.3 22:13:46 18° S 22:18:24 64° E 22:24:30 10° NNE
Cosmos 1153 Rocket 4.4 22:17:48 43° SSW 22:19:48 68° W 22:25:53 10° N
USA 305 4.3 22:21:29 19° SE 22:21:38 19° SE 22:23:57 10° ENE
USA 290 4.2 22:24:53 21° SE 22:25:59 25° ESE 22:28:41 10° NE
SWIFT 2.6 22:28:52 47° SSE 22:28:52 47° SSE 22:32:12 10° ESE
NOSS 3-1 (C) 2.8 22:27:52 40° S 22:29:25 72° ESE 22:34:10 10° NNE
Cosmos 1271 Rocket 3.2 22:31:31 39° NW 22:31:31 39° NW 22:34:15 10° N
Cosmos 1607 3.8 22:26:02 10° NNW 22:32:20 86° WSW 22:38:28 10° SSE
ISS -3.1 22:39:05 40° SSE 22:39:46 47° SE 22:42:59 10° NE
Cosmos 1862 3.5 22:39:57 44° W 22:40:02 44° W 22:43:40 10° NNW
Stardust Del rocket 3.8 22:40:41 39° SSW 22:40:56 39° SSW 22:46:14 10° SE
Thor Agena Rocket 3.8 22:35:51 10° N 22:40:56 51° WNW 22:43:09 31° SW
YAOGAN 6 4.3 22:40:07 10° NNW 22:41:19 17° NW 22:41:19 17° NW
Cosmos 1602 Rocket 4.4 22:44:48 31° W 22:45:09 31° W 22:49:06 10° NNW
Cosmos 1825 Rocket 3.5 22:42:44 21° S 22:45:37 86° W 22:50:03 10° N
GPS 2-17 Rocket1 3.7 22:45:36 30° SSW 22:47:19 43° SSE 22:51:48 10° E
Aurora 2 Rocket 4.1 22:43:48 17° WNW 22:47:28 44° N 22:54:09 10° ENE
NOSS 3-1 (A) 4.1 22:43:46 11° S 22:47:49 34° ESE 22:52:07 10° NE
Cosmos 220 Rocket 4.4 22:44:02 10° N 22:48:04 59° ENE 22:52:07 10° SSE
ATLAS 3B R/B 3.7 22:46:16 10° S 22:52:24 42° ESE 22:58:59 10° NE
Cosmos 1484 Rocket 2.8 22:48:55 10° NNE 22:52:41 75° E 22:55:45 15° S
Cosmos 489 Rocket 4.4 22:48:21 19° SSW 22:53:01 70° WNW 22:59:13 10° N
Cosmos 1812 Rocket 3.6 22:48:45 10° N 22:53:06 79° E 22:57:30 10° S
Cosmos 1943 Rocket 2.1 22:49:28 19° SSW 22:53:34 78° WNW 22:59:13 10° NNE
BREEZE-M DEB (TANK) 2.6 22:53:18 30° W 22:54:22 42° SW 23:00:18 10° SSE
Cosmos 2346 Rocket 4.3 22:48:24 10° N 22:54:26 80° W 23:00:31 10° S
ATLAS 2A CENTAUR R/B 1.8 22:55:59 26° SSE 22:55:59 26° SSE 22:57:16 10° SE
Cosmos 1378 2.7 22:52:29 10° N 22:55:43 81° E 22:58:57 10° S
Cosmos 1939 Rocket 3.3 22:52:11 10° NNE 22:56:03 59° E 22:59:50 10° S
CSL-04 DEB 4.1 22:53:10 10° N 22:56:56 79° WNW 22:59:44 17° SSW
SL-16 R/B 3.9 23:00:00 17° W 23:00:00 17° W 23:03:49 10° WNW
ARGOS 4.3 22:55:03 10° NNE 23:00:10 43° E 23:05:16 10° S
Cosmos 1515 3.6 22:58:00 10° NNW 23:01:21 47° W 23:03:49 16° SSW
Ariane H10 3.3 23:03:41 11° S 23:03:54 11° S 23:04:49 10° SSE
GOES 2 Rocket 3.2 23:01:36 14° WNW 23:05:17 58° SSW 23:10:27 10° SE
Lacrosse 5 3.4 23:04:34 16° W 23:07:01 22° NW 23:10:54 10° N
H-2A R/B 2.3 23:06:01 10° N 23:11:00 49° WNW 23:15:50 10° SSW
CZ-2C R/B 4.2 23:10:56 10° NW 23:12:39 12° WNW 23:13:42 11° W
Meteor 2-14 Rocket 4.5 23:08:03 10° NNW 23:13:56 57° W 23:19:52 10° S
USA 307 2.4 23:12:03 15° SSW 23:15:00 74° SE 23:18:16 10° NE
Cosmos 1666 3.9 23:14:26 17° WSW 23:15:20 19° W 23:17:50 10° NW
Cosmos 1782 4.2 23:19:32 10° NW 23:22:12 18° W 23:24:20 12° SW
Cosmos 2151 3.2 23:19:09 10° SSW 23:23:07 47° W 23:27:06 10° N
Cosmos 1802 Rocket 4.4 23:19:38 10° SSW 23:25:38 44° W 23:31:43 10° NNW
Cosmos 2278 Rocket 3.8 23:24:23 11° WSW 23:27:48 18° WNW 23:31:34 10° NNW
ARIANE 5 R/B 3.0 23:24:12 10° NNE 23:29:08 63° ESE 23:34:05 10° S
Intercosmos 25 4.0 23:31:12 10° SSW 23:34:28 28° W 23:37:17 10° NNW
GPS 2-14 Rocket1 3.0 23:36:25 10° WNW 23:39:16 39° N 23:42:06 10° ENE
